UAE788 DGAA-OMDB

Flight info

Callsign UAE788
Flight time N/A
Altitude 33000
Route ACC UP685 DLA DCT ARKEV UR984 MPK UT139 SOPOG/N0494F350 UT139 ASKON L558 DASTU T139 GWZ T667 DWA UW885 ARSHI/N0491F360 UW885 HARGA/N0492F350 UB404 DEMGO B404 RIGAM/N0489F370 B400 DAXAM Y414 DEDSO R401 VELIK/N0489F360 R401 MUSAP/N0489F350 R401 PEDOG Q308 KIPOK Q568 IMPED
Aircraft B77W/H-SDE1E2E3FGHIJ1J2J3J4J5J6J7RWY/LB1D1

Departure

Time N/A
Airport Kotoka International Airport (DGAA)

Arrival

Time 2026-05-06 15:12
Airport Dubai International Airport (OMDB)
Time Latitude Longitude Altitude Speed Heading
2026-05-06 11:20 8.25192 35.05162 33867 ft 519 kts 76°
2026-05-06 11:21 8.26969 35.12217 33864 ft 518 kts 76°
2026-05-06 11:21 8.28739 35.19254 33869 ft 516 kts 76°
2026-05-06 11:22 8.30503 35.26272 33861 ft 515 kts 76°
2026-05-06 11:22 8.32262 35.33279 33867 ft 515 kts 76°
2026-05-06 11:23 8.34018 35.40277 33871 ft 514 kts 76°
2026-05-06 11:23 8.35719 35.47287 33870 ft 514 kts 77°
2026-05-06 11:24 8.37286 35.54335 33869 ft 515 kts 77°
2026-05-06 11:24 8.38841 35.61392 33874 ft 516 kts 77°
2026-05-06 11:25 8.40420 35.68466 33873 ft 517 kts 77°
2026-05-06 11:25 8.42010 35.75548 33896 ft 518 kts 77°
2026-05-06 11:26 8.43605 35.82647 33882 ft 518 kts 77°
2026-05-06 11:26 8.45197 35.89741 33893 ft 518 kts 77°
2026-05-06 11:27 8.46768 35.96756 33903 ft 518 kts 77°
2026-05-06 11:27 8.48345 36.03802 33886 ft 517 kts 77°
2026-05-06 11:28 8.49917 36.10832 33888 ft 517 kts 77°
2026-05-06 11:28 8.51496 36.17902 33891 ft 516 kts 77°
2026-05-06 11:29 8.53075 36.24979 33893 ft 516 kts 77°
2026-05-06 11:29 8.54652 36.32049 33891 ft 516 kts 77°
2026-05-06 11:30 8.56229 36.39127 33885 ft 516 kts 77°
2026-05-06 11:30 8.57804 36.46206 33878 ft 516 kts 77°
2026-05-06 11:31 8.59378 36.53282 33875 ft 516 kts 77°
2026-05-06 11:31 8.60951 36.60360 33867 ft 516 kts 77°
2026-05-06 11:32 8.62523 36.67443 33865 ft 517 kts 77°
2026-05-06 11:32 8.64094 36.74528 33862 ft 517 kts 77°
2026-05-06 11:33 8.65662 36.81605 33860 ft 515 kts 77°
2026-05-06 11:33 8.67225 36.88664 33849 ft 514 kts 77°
2026-05-06 11:34 8.68783 36.95709 33843 ft 513 kts 77°
2026-05-06 11:34 8.70325 37.02687 33845 ft 512 kts 77°
2026-05-06 11:35 8.71875 37.09712 33848 ft 512 kts 77°
2026-05-06 11:35 8.73447 37.16730 33857 ft 512 kts 76°
2026-05-06 11:36 8.75098 37.23726 33860 ft 512 kts 76°
2026-05-06 11:36 8.76764 37.30738 33861 ft 513 kts 76°
2026-05-06 11:37 8.78419 37.37767 33876 ft 514 kts 76°
2026-05-06 11:37 8.80069 37.44808 33900 ft 515 kts 76°
2026-05-06 11:38 8.81720 37.51865 33908 ft 516 kts 76°
2026-05-06 11:38 8.83370 37.58921 33907 ft 516 kts 76°
2026-05-06 11:39 8.85018 37.65970 33915 ft 515 kts 76°
2026-05-06 11:39 8.86662 37.73011 33925 ft 514 kts 76°
2026-05-06 11:40 8.88303 37.80047 33931 ft 514 kts 76°
2026-05-06 11:40 8.89940 37.87070 33931 ft 513 kts 76°
2026-05-06 11:41 8.91576 37.94098 33932 ft 513 kts 76°
2026-05-06 11:41 8.93211 38.01122 33928 ft 513 kts 76°
2026-05-06 11:42 8.94837 38.08143 33930 ft 514 kts 76°
2026-05-06 11:42 8.96455 38.15190 33928 ft 515 kts 76°
2026-05-06 11:43 8.98063 38.22201 33927 ft 516 kts 76°
2026-05-06 11:43 8.99684 38.29265 33922 ft 516 kts 76°
2026-05-06 11:44 9.02118 38.39880 33919 ft 516 kts 76°
2026-05-06 11:44 9.03739 38.46960 33963 ft 516 kts 76°
2026-05-06 11:45 9.05358 38.54035 34041 ft 516 kts 76°
2026-05-06 11:45 9.06973 38.61102 34118 ft 515 kts 76°
2026-05-06 11:46 9.08583 38.68152 34178 ft 515 kts 76°
2026-05-06 11:46 9.10195 38.75217 34214 ft 515 kts 76°
2026-05-06 11:47 9.11683 38.82303 34200 ft 515 kts 78°
2026-05-06 11:47 9.12913 38.89443 34158 ft 515 kts 79°
2026-05-06 11:48 9.14128 38.96584 33952 ft 515 kts 79°
2026-05-06 11:48 9.15385 39.03723 33959 ft 515 kts 79°
2026-05-06 11:49 9.16662 39.10857 33952 ft 515 kts 79°
2026-05-06 11:49 9.17725 39.16788 33969 ft 515 kts 79°
2026-05-06 11:50 9.19207 39.25083 33958 ft 515 kts 79°
2026-05-06 11:50 9.20477 39.32217 33949 ft 515 kts 79°
2026-05-06 11:51 9.21541 39.38193 33952 ft 514 kts 79°
2026-05-06 11:51 9.22806 39.45314 33934 ft 514 kts 79°
2026-05-06 11:52 9.24070 39.52435 33935 ft 514 kts 79°
2026-05-06 11:52 9.25323 39.59497 33911 ft 513 kts 79°
2026-05-06 11:53 9.26580 39.66601 33908 ft 513 kts 79°
2026-05-06 11:53 9.27838 39.73708 33879 ft 513 kts 79°
2026-05-06 11:54 9.29094 39.80814 33861 ft 513 kts 79°
2026-05-06 11:54 9.30349 39.87924 33846 ft 513 kts 79°
2026-05-06 11:55 9.31602 39.95032 33819 ft 513 kts 79°
2026-05-06 11:55 9.32854 40.02145 33818 ft 513 kts 79°
2026-05-06 11:56 9.34106 40.09262 33806 ft 513 kts 79°
2026-05-06 11:56 9.35355 40.16373 33802 ft 513 kts 79°
2026-05-06 11:57 9.36603 40.23486 33790 ft 513 kts 79°
2026-05-06 11:57 9.37848 40.30593 33802 ft 512 kts 79°
2026-05-06 11:58 9.39091 40.37698 33792 ft 512 kts 79°
2026-05-06 11:58 9.40330 40.44787 33801 ft 511 kts 78°
2026-05-06 11:59 9.41558 40.51823 33819 ft 510 kts 79°
2026-05-06 11:59 9.42789 40.58892 33831 ft 510 kts 79°
2026-05-06 12:00 9.44019 40.65958 33827 ft 509 kts 78°
2026-05-06 12:00 9.45247 40.73026 33830 ft 509 kts 79°
2026-05-06 12:01 9.46473 40.80089 33842 ft 509 kts 79°
2026-05-06 12:01 9.47697 40.87150 33835 ft 509 kts 79°
2026-05-06 12:02 9.48920 40.94219 33850 ft 509 kts 79°
2026-05-06 12:02 9.50136 41.01249 33838 ft 509 kts 78°
2026-05-06 12:03 9.51350 41.08280 33833 ft 509 kts 78°
2026-05-06 12:03 9.52566 41.15329 33849 ft 508 kts 79°
2026-05-06 12:04 9.53780 41.22377 33862 ft 508 kts 78°
2026-05-06 12:04 9.54992 41.29420 33877 ft 507 kts 79°
2026-05-06 12:05 9.56201 41.36453 33855 ft 507 kts 79°
2026-05-06 12:05 9.57408 41.43483 33870 ft 506 kts 79°
2026-05-06 12:06 9.58610 41.50499 33869 ft 505 kts 79°
2026-05-06 12:06 9.59809 41.57503 33876 ft 504 kts 79°
2026-05-06 12:07 9.61006 41.64500 33884 ft 504 kts 79°
2026-05-06 12:07 9.62200 41.71491 33850 ft 503 kts 79°
2026-05-06 12:08 9.63392 41.78480 33860 ft 503 kts 79°
2026-05-06 12:08 9.64275 41.85514 33861 ft 504 kts 86°
2026-05-06 12:09 9.64024 41.92613 33877 ft 504 kts 93°
2026-05-06 12:09 9.63551 41.99706 33879 ft 505 kts 93°
2026-05-06 12:10 9.63106 42.06803 33881 ft 505 kts 92°
2026-05-06 12:10 9.62692 42.13853 33888 ft 505 kts 92°
2026-05-06 12:11 9.62282 42.20951 33892 ft 504 kts 92°
2026-05-06 12:11 9.61870 42.28040 33893 ft 504 kts 92°
2026-05-06 12:12 9.61455 42.35127 33891 ft 503 kts 92°
2026-05-06 12:12 9.61039 42.42207 33877 ft 503 kts 92°
2026-05-06 12:13 9.60621 42.49281 33879 ft 503 kts 92°
2026-05-06 12:13 9.60202 42.56345 33880 ft 502 kts 92°
2026-05-06 12:14 9.59783 42.63405 33885 ft 502 kts 92°
2026-05-06 12:14 9.59362 42.70448 33882 ft 501 kts 92°
2026-05-06 12:15 9.58939 42.77516 34224 ft 502 kts 92°
2026-05-06 12:15 9.58729 42.81013 34529 ft 501 kts 93°
2026-05-06 12:15 9.58518 42.84535 34751 ft 501 kts 93°
2026-05-06 12:16 9.58305 42.88058 34971 ft 501 kts 93°
2026-05-06 12:16 9.58093 42.91584 35205 ft 501 kts 93°
2026-05-06 12:16 9.57880 42.95109 35438 ft 501 kts 93°
2026-05-06 12:16 9.57667 42.98631 35672 ft 501 kts 93°
2026-05-06 12:17 9.57453 43.02161 35817 ft 503 kts 93°
2026-05-06 12:17 9.57240 43.05661 35847 ft 505 kts 94°
2026-05-06 12:17 9.56810 43.12734 35881 ft 501 kts 94°
2026-05-06 12:18 9.56381 43.19754 35890 ft 498 kts 94°
2026-05-06 12:18 9.55953 43.26747 35895 ft 497 kts 94°
2026-05-06 12:19 9.55524 43.33725 35894 ft 496 kts 94°
2026-05-06 12:19 9.55093 43.40707 35894 ft 496 kts 93°
2026-05-06 12:20 9.54769 43.47694 35892 ft 497 kts 92°
2026-05-06 12:20 9.54517 43.54703 35892 ft 498 kts 92°
2026-05-06 12:21 9.54252 43.61718 35883 ft 499 kts 92°
2026-05-06 12:21 9.53970 43.68739 35877 ft 499 kts 92°
2026-05-06 12:22 9.53682 43.75759 35872 ft 499 kts 92°
2026-05-06 12:22 9.53394 43.82778 35875 ft 498 kts 92°
2026-05-06 12:23 9.53105 43.89787 35873 ft 498 kts 92°
2026-05-06 12:23 9.52816 43.96791 35868 ft 498 kts 92°
2026-05-06 12:24 9.52535 44.03791 35859 ft 497 kts 91°
2026-05-06 12:24 9.52773 44.07279 35851 ft 497 kts 80°
2026-05-06 12:24 9.53591 44.10675 35867 ft 497 kts 72°
2026-05-06 12:25 9.56582 44.16967 35865 ft 497 kts 60°
2026-05-06 12:25 9.60153 44.22983 35861 ft 498 kts 59°
2026-05-06 12:26 9.63713 44.29014 35864 ft 499 kts 60°
2026-05-06 12:26 9.67226 44.35072 35863 ft 500 kts 60°
2026-05-06 12:27 9.70725 44.41153 35860 ft 501 kts 60°
2026-05-06 12:27 9.74231 44.47255 35853 ft 501 kts 60°
2026-05-06 12:28 9.77738 44.53358 35856 ft 501 kts 60°
2026-05-06 12:28 9.81218 44.59412 35849 ft 500 kts 60°
2026-05-06 12:29 9.84717 44.65502 35853 ft 500 kts 60°
2026-05-06 12:29 9.88216 44.71596 35862 ft 500 kts 60°
2026-05-06 12:30 9.91714 44.77692 35857 ft 500 kts 60°
2026-05-06 12:30 9.95210 44.83786 35859 ft 500 kts 60°
2026-05-06 12:31 9.98703 44.89879 35846 ft 500 kts 60°
2026-05-06 12:31 10.02197 44.95978 35846 ft 500 kts 60°
2026-05-06 12:32 10.05694 45.02084 35832 ft 501 kts 60°
2026-05-06 12:32 10.09192 45.08196 35828 ft 501 kts 60°
2026-05-06 12:33 10.12690 45.14310 35827 ft 501 kts 60°
2026-05-06 12:33 10.16187 45.20427 35830 ft 501 kts 60°
2026-05-06 12:34 10.19691 45.26558 35827 ft 502 kts 60°
2026-05-06 12:34 10.23190 45.32686 35796 ft 502 kts 60°
2026-05-06 12:35 10.26693 45.38823 35801 ft 502 kts 60°
2026-05-06 12:35 10.30195 45.44961 35798 ft 502 kts 60°
2026-05-06 12:36 10.33695 45.51099 35793 ft 502 kts 60°
2026-05-06 12:36 10.37196 45.57244 35785 ft 502 kts 60°
2026-05-06 12:37 10.40673 45.63349 35785 ft 503 kts 60°
2026-05-06 12:37 10.44173 45.69498 35789 ft 503 kts 60°
2026-05-06 12:38 10.47663 45.75632 35797 ft 503 kts 60°
2026-05-06 12:38 10.51171 45.81801 35789 ft 504 kts 60°
2026-05-06 12:39 10.54106 45.86966 35798 ft 504 kts 60°
2026-05-06 12:39 10.57611 45.93136 35795 ft 504 kts 60°
2026-05-06 12:40 10.61114 45.99309 35804 ft 504 kts 60°
2026-05-06 12:40 10.64617 46.05484 35799 ft 505 kts 60°
2026-05-06 12:41 10.68125 46.11672 35785 ft 505 kts 60°
2026-05-06 12:41 10.71631 46.17859 35785 ft 505 kts 60°
2026-05-06 12:42 10.75141 46.24057 35785 ft 506 kts 61°
2026-05-06 12:42 10.78649 46.30256 35786 ft 506 kts 61°
2026-05-06 12:43 10.82175 46.36456 35776 ft 506 kts 60°
2026-05-06 12:43 10.85744 46.42629 35772 ft 507 kts 60°
2026-05-06 12:44 10.89298 46.48768 35776 ft 507 kts 60°
2026-05-06 12:44 10.92850 46.54923 35772 ft 507 kts 60°
2026-05-06 12:45 10.96414 46.61111 35772 ft 507 kts 60°
2026-05-06 12:46 11.01756 46.70395 35775 ft 506 kts 60°
2026-05-06 12:46 11.05316 46.76586 35772 ft 506 kts 60°
2026-05-06 12:47 11.08871 46.82770 35776 ft 506 kts 60°
2026-05-06 12:47 11.12422 46.88953 35775 ft 506 kts 60°
2026-05-06 12:48 11.15970 46.95132 35775 ft 506 kts 60°
2026-05-06 12:48 11.19519 47.01318 35775 ft 506 kts 60°
2026-05-06 12:49 11.23067 47.07507 35777 ft 506 kts 60°
2026-05-06 12:49 11.26613 47.13696 35778 ft 506 kts 60°
2026-05-06 12:50 11.30157 47.19886 35768 ft 506 kts 60°
2026-05-06 12:50 11.33702 47.26080 35773 ft 506 kts 60°
2026-05-06 12:51 11.37246 47.32276 35771 ft 506 kts 60°
2026-05-06 12:51 11.40791 47.38467 35770 ft 506 kts 60°
2026-05-06 12:52 11.44338 47.44660 35773 ft 506 kts 60°
2026-05-06 12:52 11.47882 47.50855 35772 ft 506 kts 60°
2026-05-06 12:53 11.51420 47.57045 35772 ft 505 kts 60°
2026-05-06 12:53 11.54960 47.63243 35773 ft 505 kts 60°
2026-05-06 12:54 11.58494 47.69433 35777 ft 505 kts 60°
2026-05-06 12:54 11.62026 47.75624 35775 ft 505 kts 60°
2026-05-06 12:55 11.65557 47.81818 35774 ft 505 kts 60°
2026-05-06 12:55 11.69089 47.88017 35776 ft 505 kts 60°
2026-05-06 12:56 11.72618 47.94214 35775 ft 505 kts 60°
2026-05-06 12:56 11.76120 48.00369 35776 ft 505 kts 60°
2026-05-06 12:57 11.79646 48.06569 35776 ft 505 kts 60°
2026-05-06 12:57 11.83173 48.12776 35774 ft 505 kts 60°
2026-05-06 12:58 11.86698 48.18981 35775 ft 505 kts 60°
2026-05-06 12:58 11.90221 48.25189 35774 ft 505 kts 60°
2026-05-06 12:59 11.93743 48.31399 35776 ft 506 kts 60°
2026-05-06 12:59 11.97268 48.37617 35776 ft 506 kts 60°
2026-05-06 13:00 12.00788 48.43833 35773 ft 506 kts 60°
2026-05-06 13:00 12.04313 48.50059 35779 ft 506 kts 60°
2026-05-06 13:01 12.07872 48.56260 35779 ft 506 kts 60°
2026-05-06 13:01 12.11488 48.62443 35771 ft 507 kts 60°
2026-05-06 13:02 12.15102 48.68628 35773 ft 507 kts 60°
2026-05-06 13:02 12.18706 48.74820 35776 ft 507 kts 60°
2026-05-06 13:03 12.22304 48.81015 35776 ft 507 kts 60°
2026-05-06 13:03 12.25904 48.87219 35775 ft 507 kts 60°
2026-05-06 13:04 12.29500 48.93419 35774 ft 507 kts 60°
2026-05-06 13:04 12.33099 48.99629 35777 ft 507 kts 60°
2026-05-06 13:05 12.36693 49.05833 35775 ft 507 kts 60°
2026-05-06 13:05 12.40286 49.12039 35773 ft 507 kts 60°
2026-05-06 13:06 12.43876 49.18245 35777 ft 507 kts 60°
2026-05-06 13:06 12.47444 49.24417 35774 ft 507 kts 60°
2026-05-06 13:07 12.51034 49.30630 35776 ft 507 kts 60°
2026-05-06 13:07 12.54622 49.36844 35776 ft 507 kts 60°
2026-05-06 13:08 12.58209 49.43061 35773 ft 507 kts 60°
2026-05-06 13:08 12.61816 49.49319 35776 ft 507 kts 60°
2026-05-06 13:09 12.65400 49.55538 35774 ft 507 kts 60°
2026-05-06 13:09 12.68958 49.61717 35779 ft 507 kts 60°
2026-05-06 13:10 12.72536 49.67937 35775 ft 507 kts 60°
2026-05-06 13:10 12.76115 49.74162 35775 ft 507 kts 60°
2026-05-06 13:11 12.79692 49.80386 35778 ft 507 kts 60°
2026-05-06 13:11 12.83268 49.86615 35778 ft 507 kts 60°
2026-05-06 13:12 12.86841 49.92842 35781 ft 507 kts 60°
2026-05-06 13:12 12.90413 49.99071 35782 ft 507 kts 60°
2026-05-06 13:13 12.93984 50.05303 35781 ft 507 kts 60°
2026-05-06 13:13 12.97554 50.11538 35781 ft 507 kts 60°
2026-05-06 13:14 13.01116 50.17765 35786 ft 507 kts 60°
2026-05-06 13:14 13.04680 50.23999 35783 ft 507 kts 60°
2026-05-06 13:15 13.08245 50.30238 35782 ft 507 kts 60°
2026-05-06 13:15 13.11807 50.36477 35782 ft 507 kts 60°
2026-05-06 13:16 13.15367 50.42718 35784 ft 507 kts 60°
2026-05-06 13:16 13.18927 50.48963 35784 ft 507 kts 60°
2026-05-06 13:17 13.22485 50.55215 35787 ft 507 kts 60°
2026-05-06 13:17 13.26032 50.61475 35789 ft 507 kts 60°
2026-05-06 13:18 13.29580 50.67743 35786 ft 507 kts 60°
2026-05-06 13:18 13.33110 50.73983 35790 ft 508 kts 60°
2026-05-06 13:19 13.36652 50.80248 35785 ft 508 kts 60°
2026-05-06 13:19 13.40196 50.86519 35786 ft 508 kts 60°
2026-05-06 13:20 13.43740 50.92796 35786 ft 508 kts 60°
2026-05-06 13:20 13.47283 50.99077 35789 ft 509 kts 60°
2026-05-06 13:21 13.50831 51.05369 35790 ft 509 kts 60°
2026-05-06 13:21 13.54371 51.11652 35784 ft 504 kts 60°
2026-05-06 13:22 13.57844 51.17822 35781 ft 498 kts 60°
2026-05-06 13:22 13.61303 51.23971 35790 ft 496 kts 60°
2026-05-06 13:23 13.64171 51.29073 35792 ft 496 kts 61°
2026-05-06 13:23 13.67598 51.35175 35790 ft 496 kts 61°
2026-05-06 13:24 13.71608 51.42319 35794 ft 497 kts 61°
2026-05-06 13:24 13.74505 51.47483 35791 ft 498 kts 60°
2026-05-06 13:25 13.78024 51.53626 35793 ft 499 kts 60°
2026-05-06 13:25 13.81586 51.59757 35794 ft 500 kts 60°
2026-05-06 13:26 13.85145 51.65899 35801 ft 501 kts 60°
2026-05-06 13:26 13.88680 51.72023 35799 ft 501 kts 60°
2026-05-06 13:27 13.92238 51.78197 35800 ft 501 kts 60°
2026-05-06 13:27 13.95793 51.84374 35799 ft 501 kts 60°
2026-05-06 13:28 13.99346 51.90549 35800 ft 501 kts 60°
2026-05-06 13:28 14.02895 51.96722 35801 ft 501 kts 60°
2026-05-06 13:29 14.06440 52.02892 35798 ft 500 kts 60°
2026-05-06 13:29 14.09979 52.09055 35799 ft 500 kts 60°
2026-05-06 13:30 14.13515 52.15219 35799 ft 500 kts 60°
2026-05-06 13:30 14.17047 52.21380 35799 ft 499 kts 60°
2026-05-06 13:31 14.20578 52.27545 35797 ft 499 kts 60°
2026-05-06 13:31 14.24106 52.33710 35795 ft 499 kts 60°
2026-05-06 13:32 14.27608 52.39832 35800 ft 499 kts 60°
2026-05-06 13:32 14.31131 52.45998 35795 ft 499 kts 60°
2026-05-06 13:33 14.34652 52.52163 35803 ft 499 kts 60°
2026-05-06 13:33 14.38169 52.58327 35806 ft 499 kts 60°
2026-05-06 13:34 14.41653 52.64438 35801 ft 498 kts 60°
2026-05-06 13:34 14.45161 52.70595 35805 ft 498 kts 60°
2026-05-06 13:35 14.48652 52.76727 35805 ft 498 kts 60°
2026-05-06 13:35 14.52156 52.82887 35804 ft 497 kts 60°
2026-05-06 13:36 14.55654 52.89042 35804 ft 497 kts 60°
2026-05-06 13:36 14.59146 52.95192 35802 ft 496 kts 60°
2026-05-06 13:37 14.62637 53.01342 35805 ft 496 kts 60°
2026-05-06 13:37 14.66810 53.06997 35811 ft 496 kts 44°
2026-05-06 13:38 14.72261 53.11339 35809 ft 496 kts 31°
2026-05-06 13:38 14.78143 53.14997 35811 ft 497 kts 31°
2026-05-06 13:39 14.84048 53.18668 35801 ft 497 kts 31°
2026-05-06 13:39 14.89941 53.22397 35804 ft 498 kts 32°
2026-05-06 13:40 14.95835 53.26160 35813 ft 498 kts 32°
2026-05-06 13:40 15.01774 53.29956 35802 ft 498 kts 32°
2026-05-06 13:41 15.07634 53.33700 35812 ft 498 kts 32°
2026-05-06 13:41 15.13530 53.37468 35808 ft 498 kts 32°
2026-05-06 13:42 15.19429 53.41240 35809 ft 498 kts 32°
2026-05-06 13:42 15.25325 53.45014 35812 ft 498 kts 32°
2026-05-06 13:43 15.31215 53.48786 35805 ft 498 kts 32°
2026-05-06 13:43 15.37106 53.52562 35806 ft 498 kts 32°
2026-05-06 13:44 15.42997 53.56340 35805 ft 498 kts 32°
2026-05-06 13:44 15.48844 53.60178 35809 ft 497 kts 33°
2026-05-06 13:45 15.54654 53.64075 35810 ft 497 kts 33°
2026-05-06 13:45 15.63382 53.69915 35806 ft 498 kts 33°
2026-05-06 13:46 15.69209 53.73804 35808 ft 498 kts 33°
2026-05-06 13:46 15.75037 53.77695 35808 ft 498 kts 33°
2026-05-06 13:47 15.80867 53.81593 35807 ft 498 kts 33°
2026-05-06 13:47 15.86692 53.85490 35809 ft 498 kts 33°
2026-05-06 13:48 15.92517 53.89362 35811 ft 498 kts 32°
2026-05-06 13:48 15.98352 53.93204 35810 ft 498 kts 32°
2026-05-06 13:49 16.04203 53.97060 35811 ft 498 kts 32°
2026-05-06 13:49 16.10013 54.00899 35810 ft 498 kts 32°
2026-05-06 13:50 16.15857 54.04766 35808 ft 498 kts 32°
2026-05-06 13:50 16.21700 54.08635 35803 ft 498 kts 32°
2026-05-06 13:51 16.27536 54.12502 35800 ft 497 kts 32°
2026-05-06 13:51 16.33376 54.16374 35801 ft 497 kts 32°
2026-05-06 13:52 16.39213 54.20247 35802 ft 498 kts 32°
2026-05-06 13:52 16.45052 54.24124 35801 ft 498 kts 32°
2026-05-06 13:53 16.50892 54.28004 35804 ft 498 kts 32°
2026-05-06 13:53 16.56733 54.31888 35797 ft 498 kts 32°
2026-05-06 13:54 16.62566 54.35770 35798 ft 497 kts 32°
2026-05-06 13:54 16.68401 54.39656 35802 ft 497 kts 32°
2026-05-06 13:55 16.74197 54.43519 35795 ft 498 kts 32°
2026-05-06 13:55 16.80029 54.47409 35806 ft 498 kts 32°
2026-05-06 13:56 16.85865 54.51305 35803 ft 498 kts 32°
2026-05-06 13:56 16.91698 54.55198 35825 ft 498 kts 32°
2026-05-06 13:57 16.97537 54.59093 35825 ft 498 kts 32°
2026-05-06 13:57 17.03377 54.62991 35829 ft 498 kts 32°
2026-05-06 13:58 17.09220 54.66896 35834 ft 499 kts 32°
2026-05-06 13:58 17.15062 54.70803 35830 ft 499 kts 32°
2026-05-06 13:59 17.20899 54.74711 35822 ft 499 kts 32°
2026-05-06 13:59 17.26744 54.78626 35827 ft 499 kts 32°
2026-05-06 14:00 17.32433 54.82708 35818 ft 499 kts 36°
2026-05-06 14:00 17.38034 54.87006 35818 ft 499 kts 36°
2026-05-06 14:01 17.43650 54.91288 35820 ft 500 kts 36°
2026-05-06 14:01 17.49295 54.95539 35804 ft 500 kts 36°
2026-05-06 14:02 17.54943 54.99781 35807 ft 500 kts 36°
2026-05-06 14:02 17.60588 55.04027 35788 ft 500 kts 35°
2026-05-06 14:03 17.66232 55.08279 35802 ft 499 kts 35°
2026-05-06 14:03 17.71868 55.12529 35795 ft 499 kts 35°
2026-05-06 14:04 17.77508 55.16786 35797 ft 499 kts 36°
2026-05-06 14:04 17.83141 55.21048 35795 ft 499 kts 36°
2026-05-06 14:05 17.88772 55.25318 35792 ft 500 kts 36°
2026-05-06 14:05 17.94402 55.29589 35801 ft 500 kts 35°
2026-05-06 14:06 18.00034 55.33865 35796 ft 500 kts 35°
2026-05-06 14:06 18.05668 55.38145 35804 ft 500 kts 35°
2026-05-06 14:07 18.11338 55.42370 35805 ft 500 kts 33°
2026-05-06 14:07 18.17192 55.46302 35803 ft 499 kts 31°
2026-05-06 14:08 18.23056 55.50224 35806 ft 500 kts 32°
2026-05-06 14:08 18.28886 55.54203 35797 ft 500 kts 32°
2026-05-06 14:09 18.34714 55.58192 35803 ft 499 kts 32°
2026-05-06 14:09 18.40533 55.62181 35804 ft 499 kts 32°
2026-05-06 14:10 18.46349 55.66175 35807 ft 499 kts 32°
2026-05-06 14:10 18.52162 55.70170 35803 ft 499 kts 32°
2026-05-06 14:11 18.57974 55.74168 35802 ft 499 kts 32°
2026-05-06 14:11 18.63742 55.78139 35804 ft 499 kts 32°
2026-05-06 14:12 18.69550 55.82140 35807 ft 498 kts 33°
2026-05-06 14:12 18.75344 55.86135 35803 ft 498 kts 33°
2026-05-06 14:13 18.81140 55.90135 35801 ft 497 kts 33°
2026-05-06 14:13 18.86928 55.94134 35797 ft 497 kts 33°
2026-05-06 14:14 18.91739 55.97459 35801 ft 497 kts 32°
2026-05-06 14:14 18.97808 56.00932 35803 ft 496 kts 22°
2026-05-06 14:15 19.04349 56.03198 35799 ft 495 kts 13°
2026-05-06 14:15 19.11043 56.04941 35803 ft 496 kts 13°
2026-05-06 14:16 19.17756 56.06687 35800 ft 497 kts 13°
2026-05-06 14:16 19.24462 56.08474 35795 ft 497 kts 13°
2026-05-06 14:17 19.31177 56.10284 35788 ft 498 kts 13°
2026-05-06 14:17 19.37886 56.12096 35789 ft 498 kts 13°
2026-05-06 14:18 19.44604 56.13909 35793 ft 498 kts 13°
2026-05-06 14:18 19.51324 56.15724 35790 ft 498 kts 13°
2026-05-06 14:19 19.58037 56.17538 35787 ft 498 kts 12°
2026-05-06 14:19 19.64710 56.19343 35778 ft 498 kts 12°
2026-05-06 14:20 19.71409 56.21156 35780 ft 498 kts 12°
2026-05-06 14:20 19.78118 56.22974 35784 ft 498 kts 12°
2026-05-06 14:21 19.84828 56.24794 35779 ft 498 kts 12°
2026-05-06 14:21 19.91544 56.26617 35776 ft 498 kts 13°
2026-05-06 14:22 19.98314 56.28026 35780 ft 495 kts
2026-05-06 14:22 20.05162 56.28218 35777 ft 493 kts 357°
2026-05-06 14:23 20.12027 56.28158 35771 ft 493 kts 358°
2026-05-06 14:23 20.18886 56.28135 35766 ft 493 kts 358°
2026-05-06 14:24 20.25744 56.28144 35763 ft 492 kts 358°
2026-05-06 14:24 20.32586 56.28160 35763 ft 492 kts 358°
2026-05-06 14:25 20.39429 56.28173 35766 ft 491 kts 358°
2026-05-06 14:25 20.46216 56.28184 35768 ft 491 kts 358°
2026-05-06 14:26 20.53046 56.28196 35766 ft 491 kts 358°
2026-05-06 14:26 20.59831 56.27701 35775 ft 488 kts 351°
2026-05-06 14:27 20.66551 56.26684 35779 ft 488 kts 350°
2026-05-06 14:27 20.73266 56.25661 35776 ft 488 kts 350°
2026-05-06 14:28 20.79998 56.24673 35774 ft 488 kts 350°
2026-05-06 14:28 20.86732 56.23701 35776 ft 488 kts 350°
2026-05-06 14:29 20.93463 56.22729 35784 ft 488 kts 350°
2026-05-06 14:29 21.00194 56.21754 35778 ft 488 kts 350°
2026-05-06 14:30 21.06926 56.20777 35780 ft 488 kts 350°
2026-05-06 14:30 21.13657 56.19799 35781 ft 488 kts 350°
2026-05-06 14:31 21.20387 56.18821 35787 ft 488 kts 350°
2026-05-06 14:31 21.27068 56.17849 35782 ft 488 kts 350°
2026-05-06 14:32 21.33788 56.16869 35783 ft 488 kts 350°
2026-05-06 14:32 21.40513 56.15885 35783 ft 487 kts 350°
2026-05-06 14:33 21.47228 56.14901 35786 ft 487 kts 350°
2026-05-06 14:33 21.53933 56.13918 35788 ft 487 kts 350°
2026-05-06 14:34 21.60654 56.12932 35787 ft 487 kts 350°
2026-05-06 14:34 21.67370 56.11946 35789 ft 487 kts 350°
2026-05-06 14:35 21.74086 56.10958 35796 ft 487 kts 350°
2026-05-06 14:35 21.80806 56.09970 35794 ft 487 kts 349°
2026-05-06 14:36 21.87527 56.08980 35788 ft 488 kts 349°
2026-05-06 14:36 21.94250 56.07989 35791 ft 488 kts 349°
2026-05-06 14:37 22.00975 56.06996 35793 ft 488 kts 349°
2026-05-06 14:37 22.07694 56.06001 35792 ft 488 kts 349°
2026-05-06 14:38 22.14417 56.05001 35793 ft 487 kts 349°
2026-05-06 14:38 22.21090 56.04007 35792 ft 487 kts 349°
2026-05-06 14:39 22.27812 56.03006 35802 ft 487 kts 349°
2026-05-06 14:39 22.34523 56.02005 35792 ft 487 kts 349°
2026-05-06 14:40 22.41237 56.01004 35795 ft 486 kts 349°
2026-05-06 14:40 22.47940 56.00012 35798 ft 486 kts 349°
2026-05-06 14:41 22.54645 55.99018 35800 ft 486 kts 349°
2026-05-06 14:41 22.61346 55.98022 35794 ft 486 kts 349°
2026-05-06 14:42 22.68043 55.97026 35800 ft 486 kts 349°
2026-05-06 14:42 22.74740 55.96029 35800 ft 486 kts 349°
2026-05-06 14:43 22.81442 55.95031 35809 ft 486 kts 348°
2026-05-06 14:43 22.88141 55.94033 35805 ft 486 kts 348°
2026-05-06 14:44 22.94838 55.93034 35806 ft 486 kts 348°
2026-05-06 14:45 23.04899 55.91531 35818 ft 486 kts 348°
2026-05-06 14:45 23.11604 55.90524 35810 ft 487 kts 348°
2026-05-06 14:46 23.18312 55.89513 35811 ft 487 kts 348°
2026-05-06 14:46 23.25019 55.88502 35809 ft 486 kts 348°
2026-05-06 14:47 23.31706 55.87493 35814 ft 486 kts 348°
2026-05-06 14:47 23.38405 55.86481 35806 ft 486 kts 348°
2026-05-06 14:48 23.45111 55.85467 35814 ft 486 kts 348°
2026-05-06 14:48 23.51765 55.84460 35817 ft 486 kts 348°
2026-05-06 14:49 23.58459 55.83449 35823 ft 486 kts 348°
2026-05-06 14:49 23.65135 55.82447 35819 ft 485 kts 348°
2026-05-06 14:50 23.71887 55.81876 35826 ft 490 kts 357°
2026-05-06 14:50 23.78708 55.82487 35826 ft 489 kts
2026-05-06 14:50 23.82036 55.82874 35820 ft 474 kts
2026-05-06 14:51 23.85262 55.83247 35807 ft 459 kts
2026-05-06 14:51 23.91504 55.83926 35820 ft 450 kts
2026-05-06 14:51 23.94614 55.84248 35490 ft 452 kts
2026-05-06 14:52 23.97758 55.84569 34832 ft 455 kts
2026-05-06 14:52 24.00885 55.84889 34137 ft 459 kts
2026-05-06 14:52 24.04073 55.85218 33384 ft 462 kts
2026-05-06 14:52 24.07292 55.85550 32543 ft 467 kts
2026-05-06 14:53 24.10518 55.85886 31805 ft 469 kts
2026-05-06 14:53 24.13749 55.86223 31090 ft 471 kts
2026-05-06 14:53 24.17013 55.86564 30415 ft 471 kts
2026-05-06 14:53 24.20273 55.86906 29854 ft 469 kts
2026-05-06 14:54 24.23509 55.87244 29177 ft 467 kts
2026-05-06 14:54 24.26763 55.87582 28193 ft 472 kts
2026-05-06 14:54 24.30047 55.87941 27297 ft 476 kts
2026-05-06 14:54 24.33315 55.88520 26515 ft 477 kts 10°
2026-05-06 14:55 24.36475 55.89677 25757 ft 481 kts 22°
2026-05-06 14:55 24.39405 55.91455 25098 ft 481 kts 31°
2026-05-06 14:55 24.42030 55.93704 24578 ft 478 kts 40°
2026-05-06 14:55 24.44397 55.96158 24077 ft 472 kts 41°
2026-05-06 14:56 24.46765 55.98613 23575 ft 466 kts 41°
2026-05-06 14:56 24.49130 56.01025 22977 ft 461 kts 41°
2026-05-06 14:56 24.51468 56.03373 22385 ft 456 kts 41°
2026-05-06 14:56 24.53799 56.05702 21810 ft 451 kts 41°
2026-05-06 14:57 24.56111 56.08010 21256 ft 446 kts 41°
2026-05-06 14:57 24.58423 56.10157 20436 ft 424 kts 34°
2026-05-06 14:57 24.60956 56.11742 19228 ft 416 kts 23°
2026-05-06 14:57 24.63631 56.12809 17994 ft 404 kts 15°
2026-05-06 14:58 24.66374 56.13395 16459 ft 399 kts
2026-05-06 14:58 24.69113 56.13835 15071 ft 395 kts
2026-05-06 14:58 24.71790 56.14304 14010 ft 384 kts
2026-05-06 14:58 24.74402 56.14780 13201 ft 380 kts
2026-05-06 14:59 24.76978 56.15210 12898 ft 369 kts
2026-05-06 14:59 24.79515 56.15119 12634 ft 364 kts 351°
2026-05-06 14:59 24.81965 56.14471 12379 ft 361 kts 339°
2026-05-06 14:59 24.84260 56.13378 12138 ft 359 kts 334°
2026-05-06 15:00 24.86521 56.12214 11899 ft 359 kts 334°
2026-05-06 15:00 24.88789 56.11054 11666 ft 359 kts 334°
2026-05-06 15:00 24.91055 56.09912 11417 ft 358 kts 334°
2026-05-06 15:00 24.93307 56.08761 11169 ft 353 kts 331°
2026-05-06 15:01 24.95191 56.07136 10973 ft 334 kts 308°
2026-05-06 15:01 24.96279 56.05009 10625 ft 308 kts 288°
2026-05-06 15:01 24.96955 56.02846 10248 ft 290 kts 288°
2026-05-06 15:01 24.97629 56.00842 10088 ft 272 kts 289°
2026-05-06 15:02 24.98289 55.98902 9925 ft 273 kts 289°
2026-05-06 15:02 24.98965 55.96903 9636 ft 283 kts 289°
2026-05-06 15:02 24.99422 55.95550 9414 ft 285 kts 289°
2026-05-06 15:02 25.00117 55.93497 9057 ft 286 kts 289°
2026-05-06 15:03 25.00819 55.91418 8737 ft 285 kts 289°
2026-05-06 15:03 25.01501 55.89400 8418 ft 284 kts 289°
2026-05-06 15:03 25.02177 55.87401 8098 ft 284 kts 289°
2026-05-06 15:03 25.02865 55.85365 7783 ft 283 kts 289°
2026-05-06 15:04 25.03543 55.83354 7484 ft 282 kts 289°
2026-05-06 15:04 25.04224 55.81334 7158 ft 281 kts 289°
2026-05-06 15:04 25.04904 55.79318 6854 ft 280 kts 290°
2026-05-06 15:04 25.05583 55.77304 6531 ft 280 kts 290°
2026-05-06 15:05 25.06261 55.75292 6026 ft 279 kts 290°
2026-05-06 15:05 25.06929 55.73307 5498 ft 270 kts 291°
2026-05-06 15:05 25.07570 55.71403 5142 ft 264 kts 291°
2026-05-06 15:05 25.08219 55.69479 4847 ft 271 kts 291°
2026-05-06 15:06 25.08879 55.67518 4574 ft 272 kts 290°
2026-05-06 15:06 25.09528 55.65584 4421 ft 265 kts 290°
2026-05-06 15:06 25.10211 55.63732 4280 ft 257 kts 297°
2026-05-06 15:06 25.11084 55.62026 4029 ft 254 kts 302°
2026-05-06 15:07 25.12009 55.60386 3781 ft 250 kts 302°
2026-05-06 15:07 25.12921 55.58763 3547 ft 247 kts 302°
2026-05-06 15:07 25.13815 55.57154 3297 ft 244 kts 302°
2026-05-06 15:07 25.14696 55.55565 3053 ft 242 kts 303°
2026-05-06 15:08 25.15569 55.53990 2813 ft 239 kts 303°
2026-05-06 15:08 25.16415 55.52459 2511 ft 227 kts 303°
2026-05-06 15:08 25.17202 55.51042 2281 ft 206 kts 302°
2026-05-06 15:08 25.17908 55.49765 2067 ft 187 kts 302°
2026-05-06 15:09 25.18565 55.48579 1783 ft 174 kts 304°
2026-05-06 15:09 25.19182 55.47467 1599 ft 168 kts 304°
2026-05-06 15:09 25.19775 55.46395 1403 ft 159 kts 304°
2026-05-06 15:09 25.20345 55.45361 1174 ft 157 kts 305°
2026-05-06 15:10 25.20904 55.44318 1014 ft 161 kts 302°
2026-05-06 15:10 25.21485 55.43229 830 ft 167 kts 304°
2026-05-06 15:10 25.22090 55.42138 629 ft 166 kts 305°
2026-05-06 15:10 25.22692 55.41074 405 ft 162 kts 307°
2026-05-06 15:11 25.23292 55.40006 177 ft 168 kts 304°
2026-05-06 15:11 25.23850 55.39004 37 ft 160 kts 304°
2026-05-06 15:11 25.24370 55.38082 31 ft 131 kts 302°
2026-05-06 15:11 25.24713 55.37465 27 ft 57 kts 300°
2026-05-06 15:12 25.24772 55.37278 29 ft 2 kts 276°
2026-05-06 15:12 25.24779 55.37198 29 ft 11 kts 270°
2026-05-06 15:12 25.24779 55.37137 28 ft 5 kts 270°
2026-05-06 15:12 25.24779 55.37129 28 ft 2 kts 270°
2026-05-06 15:13 25.24778 55.37114 28 ft 0 kts 260°
2026-05-06 15:13 25.24777 55.37109 28 ft 2 kts 256°
2026-05-06 15:13 25.24774 55.37097 28 ft 1 kts 256°
2026-05-06 15:13 25.24772 55.37086 27 ft 3 kts 256°
2026-05-06 15:14 25.24770 55.37076 27 ft 1 kts 256°
2026-05-06 15:14 25.24767 55.37062 27 ft 3 kts 256°
2026-05-06 15:14 25.24771 55.37037 27 ft 4 kts 287°
2026-05-06 15:14 25.24779 55.37003 27 ft 5 kts 273°
2026-05-06 15:15 25.24761 55.36967 26 ft 6 kts 231°
2026-05-06 15:15 25.24726 55.36936 26 ft 7 kts 213°
2026-05-06 15:15 25.24684 55.36906 30 ft 8 kts 213°
2026-05-06 15:15 25.24634 55.36872 29 ft 10 kts 212°
2026-05-06 15:16 25.24573 55.36830 28 ft 11 kts 212°
2026-05-06 15:16 25.24510 55.36783 30 ft 11 kts 214°
2026-05-06 15:16 25.24442 55.36735 29 ft 12 kts 202°
2026-05-06 15:16 25.24413 55.36761 28 ft 6 kts 107°
2026-05-06 15:17 25.24417 55.36810 29 ft 7 kts 80°
2026-05-06 15:17 25.24425 55.36859 29 ft 6 kts 80°
2026-05-06 15:17 25.24425 55.36864 29 ft 0 kts 80°